Date,TemperatureHighF,TemperatureAvgF,TemperatureLowF,DewpointHighF,DewpointAvgF,DewpointLowF,HumidityHigh,HumidityAvg,HumidityLow,PressureMaxIn,PressureMinIn,WindSpeedMaxMPH,WindSpeedAvgMPH,GustSpeedMaxMPH,PrecipitationSumIn
2013-1-1,79.2,72.8,65.8,62.6,59.4,55.9,85,63,50,30.12,29.98,10,1,18,0.00
2013-1-2,81.2,72.1,62.1,67.2,63.3,59.8,95,76,49,30.03,29.92,10,1,11,0.00
2013-1-3,84.9,74.0,66.9,67.6,65.1,61.4,93,75,46,30.06,29.95,6,1,8,0.00
2013-1-4,83.0,72.8,65.6,70.4,67.1,63.5,95,83,60,30.15,30.03,9,1,10,0.00
2013-1-5,78.6,70.9,67.3,69.5,66.5,64.7,94,86,71,30.18,30.08,7,1,10,0.01
2013-1-6,83.0,73.7,66.4,72.2,67.8,64.3,95,83,60,30.12,29.99,9,1,12,0.02
2013-1-7,76.8,71.2,66.8,68.9,66.8,63.7,95,87,65,30.09,30.00,7,1,10,0.08
2013-1-8,82.4,75.2,69.1,72.3,69.3,67.3,95,83,64,30.13,30.00,12,2,13,0.01
2013-1-9,80.9,77.3,74.7,70.2,69.0,66.5,82,76,67,30.20,30.08,18,4,18,0.00
2013-1-10,80.5,76.0,71.8,68.2,64.9,60.2,80,69,53,30.23,30.11,12,3,16,0.00
2013-1-11,80.3,75.3,70.8,68.6,66.1,64.3,85,73,61,30.18,30.08,11,2,14,0.02
2013-1-12,80.5,74.3,67.4,67.8,65.5,61.7,89,75,58,30.11,30.01,11,2,13,0.00
2013-1-13,79.9,73.9,67.4,68.6,64.1,60.3,90,72,55,30.05,30.00,12,2,12,0.00
2013-1-14,79.6,73.0,65.2,67.6,62.3,59.9,86,70,54,30.10,30.04,11,1,11,0.00
2013-1-15,79.0,71.9,65.6,70.5,64.6,62.2,93,79,64,30.06,29.98,11,2,11,0.00
2013-1-16,81.2,72.2,62.7,69.9,64.6,58.3,95,78,61,30.03,29.94,8,1,11,0.03
2013-1-17,76.5,70.5,60.7,71.2,66.0,52.4,95,86,71,30.03,29.91,14,3,21,0.01
2013-1-18,70.6,63.6,53.8,56.1,51.1,45.1,76,64,57,30.17,30.03,13,5,14,0.00
2013-1-19,72.0,68.8,63.4,67.1,61.2,56.1,95,78,60,30.15,30.03,7,2,9,0.32
2013-1-20,81.2,70.8,64.2,68.8,64.5,58.8,96,82,55,30.08,29.94,7,1,7,0.55
2013-1-21,80.5,72.1,65.5,70.8,66.1,63.2,96,82,63,30.00,29.89,9,1,10,0.01
2013-1-22,77.0,67.8,61.6,63.8,58.0,53.4,92,72,53,30.14,29.94,14,3,14,0.00
2013-1-23,74.2,66.4,60.4,57.7,54.1,51.2,81,66,47,30.23,30.12,13,2,13,0.00
2013-1-24,75.6,66.1,58.1,54.6,51.7,46.5,83,62,41,30.22,30.12,9,2,11,0.00
2013-1-25,76.0,65.8,56.5,58.3,53.7,49.3,88,67,43,30.22,30.10,11,1,11,0.00
2013-1-26,78.8,67.0,57.0,60.2,56.9,50.3,93,72,43,30.18,30.09,7,1,10,0.00
2013-1-27,78.6,70.4,62.0,63.0,59.9,57.7,90,71,53,30.21,30.12,11,2,14,0.00
2013-1-28,78.8,74.3,70.3,65.3,62.2,59.2,76,66,53,30.24,30.15,17,3,17,0.00
2013-1-29,79.8,74.2,66.9,67.9,65.0,62.0,90,73,61,30.16,30.05,11,2,14,0.00
2013-1-30,81.2,74.9,70.9,66.1,63.5,61.7,76,68,56,30.05,29.90,10,2,13,0.00
2013-1-31,71.8,68.3,59.5,67.9,59.0,40.2,89,73,48,30.11,29.88,8,2,10,0.00
2013-2-1,73.2,61.7,52.5,59.9,46.6,36.6,69,58,46,30.20,30.09,12,3,13,0.00
2013-2-2,73.5,64.1,55.1,54.7,47.5,35.7,85,56,40,30.19,30.05,10,2,13,0.00
2013-2-3,74.0,63.5,54.1,57.7,47.5,32.9,91,61,24,30.10,30.00,10,2,13,0.00
2013-2-4,75.3,62.4,49.6,55.1,47.4,39.0,85,60,31,30.07,29.95,8,1,12,0.00
2013-2-5,80.1,66.3,54.7,62.5,56.7,52.4,92,74,43,30.01,29.93,7,1,10,0.00
2013-2-6,79.2,70.0,60.7,65.5,61.7,59.0,95,76,57,30.03,29.95,8,1,8,0.00
2013-2-7,82.4,72.8,62.6,66.7,62.0,59.9,93,71,50,30.00,29.87,7,1,10,0.00
2013-2-8,83.2,74.3,68.4,69.4,66.6,57.4,93,78,56,29.96,29.84,14,2,17,0.00
2013-2-9,79.6,70.4,62.6,66.9,61.7,57.0,96,75,57,30.10,29.94,12,3,13,0.02
2013-2-10,75.4,71.3,66.4,64.0,60.4,55.8,81,69,61,30.18,30.07,13,3,18,0.02
2013-2-11,78.5,72.4,65.8,64.3,62.5,60.0,85,71,60,30.14,30.04,12,2,14,0.00
2013-2-12,85.7,74.1,63.9,68.7,64.8,60.7,95,75,44,30.05,29.90,8,1,12,0.00
2013-2-13,81.6,72.2,68.6,71.6,68.6,65.8,94,89,67,29.94,29.90,7,0,8,0.00
2013-2-14,82.8,72.8,62.4,70.6,66.2,60.0,93,81,58,29.94,29.79,21,3,30,0.56
2013-2-15,72.5,66.5,62.9,66.7,63.8,60.5,95,91,78,29.95,29.87,8,1,8,0.35
2013-2-16,74.2,65.1,54.2,63.7,55.4,43.6,95,74,35,30.01,29.81,24,5,24,0.00
2013-2-17,58.4,52.0,45.4,45.4,28.9,17.3,75,44,23,30.24,30.01,17,4,20,0.00
2013-2-18,69.6,59.4,47.4,55.0,43.9,32.2,66,57,43,30.24,30.13,12,3,13,0.00
2013-2-19,78.5,70.9,59.3,65.4,60.2,53.2,88,69,58,30.13,30.01,10,2,12,0.00
2013-2-20,79.2,71.0,64.7,65.1,63.0,56.0,93,77,45,30.04,29.94,11,1,12,0.00
2013-2-21,80.1,72.6,64.7,67.4,64.1,62.0,95,76,56,30.02,29.92,8,2,11,0.00
2013-2-22,81.8,75.7,71.3,69.6,67.9,64.1,87,77,63,30.03,29.94,12,2,13,0.00
2013-2-23,85.9,77.8,72.5,70.9,68.7,66.6,89,75,54,29.97,29.84,7,1,12,0.00
2013-2-24,88.4,77.5,71.8,72.4,68.7,61.2,94,76,41,29.92,29.82,12,1,13,0.00
2013-2-25,85.1,76.4,68.6,72.7,67.9,65.4,93,76,53,29.84,29.74,8,1,10,0.00
2013-2-26,86.3,79.0,74.9,72.0,69.3,66.1,86,73,53,29.83,29.73,16,2,20,0.00
2013-2-27,76.7,70.6,65.5,72.7,65.5,60.6,94,85,60,29.90,29.79,8,2,11,0.26
2013-2-28,70.6,65.0,60.1,63.7,54.0,46.1,93,69,47,29.94,29.83,12,2,14,0.00
2013-3-1,65.5,62.3,58.1,56.5,50.8,46.0,82,66,56,29.92,29.84,10,2,11,0.00
2013-3-2,66.6,57.8,52.6,47.3,41.9,35.7,70,56,38,29.97,29.88,20,4,21,0.01
2013-3-3,62.1,54.8,49.9,46.0,42.6,38.1,85,64,43,30.08,29.90,16,4,19,0.02
2013-3-4,68.9,54.7,43.3,42.4,36.8,30.0,75,54,26,30.14,30.05,13,2,13,0.00
2013-3-5,75.8,63.4,49.2,56.5,51.3,41.9,92,67,42,30.11,30.01,9,1,11,0.00
2013-3-6,77.6,65.7,52.0,65.0,49.9,28.3,92,59,27,30.03,29.89,19,5,24,0.01
2013-3-7,71.5,58.1,46.8,54.3,44.4,35.5,84,62,33,30.11,30.00,11,2,12,0.00
2013-3-8,76.8,63.6,51.7,67.0,50.0,35.1,89,67,26,30.13,30.03,9,2,11,0.00
2013-3-9,75.4,64.4,56.6,63.5,50.5,47.3,71,61,46,30.12,30.03,12,3,13,0.00
2013-3-10,75.3,70.3,64.2,60.3,54.2,50.0,70,57,47,30.09,30.00,12,3,13,0.00
2013-3-11,76.7,72.0,67.1,61.0,58.9,55.4,74,64,50,30.02,29.88,12,3,14,0.00
2013-3-12,83.2,73.9,65.0,67.4,63.5,59.7,85,71,53,29.93,29.84,14,2,14,0.00
2013-3-13,76.8,66.3,56.5,64.4,51.8,39.1,89,63,28,30.05,29.92,11,3,14,0.00
2013-3-14,73.5,62.3,54.5,53.2,43.4,33.1,84,54,24,30.13,30.02,13,3,17,0.00
2013-3-15,73.0,62.9,53.1,52.7,47.7,43.6,77,59,36,30.18,30.08,8,2,12,0.00
2013-3-16,74.6,64.8,52.6,55.3,52.3,50.3,92,66,45,30.11,30.01,8,1,16,0.00
2013-3-17,76.3,67.1,56.5,59.8,56.5,53.6,91,71,50,30.08,29.96,11,1,13,0.00
2013-3-18,79.9,71.3,63.2,69.1,64.0,59.4,92,79,59,30.00,29.89,11,1,12,0.04
2013-3-19,80.3,72.8,67.9,69.7,66.4,62.7,94,81,57,29.94,29.76,11,1,16,0.05
2013-3-20,85.7,73.2,63.1,70.2,62.1,55.8,96,71,43,29.91,29.73,13,2,17,0.01
2013-3-21,75.8,67.1,58.9,61.3,51.0,39.1,92,61,30,29.87,29.77,12,2,16,0.00
2013-3-22,76.5,69.1,57.2,68.5,60.1,52.2,90,74,54,29.93,29.82,12,2,13,0.00
2013-3-23,88.8,79.1,71.3,73.7,69.7,66.1,94,75,48,29.90,29.74,9,1,11,0.02
2013-3-24,88.2,79.8,74.4,72.6,70.5,68.0,93,74,52,29.81,29.63,27,5,30,0.00
2013-3-25,79.2,73.9,62.1,72.2,57.6,35.0,91,60,33,29.94,29.68,14,4,16,0.00
2013-3-26,67.6,60.5,50.5,45.4,37.4,29.8,65,44,27,30.15,29.93,16,5,18,0.00
2013-3-27,68.8,57.3,45.8,45.7,38.9,34.3,73,52,31,30.18,30.10,11,3,14,0.00
2013-3-28,74.4,62.4,50.8,48.2,42.6,35.0,80,51,24,30.20,30.09,11,2,13,0.00
2013-3-29,75.4,65.9,57.0,52.3,47.8,42.2,69,53,33,30.21,30.13,11,2,14,0.00
2013-3-30,74.9,66.6,56.7,57.1,51.5,43.6,87,61,34,30.19,30.09,11,2,13,0.00
2013-3-31,80.3,70.2,60.2,64.9,59.7,52.6,89,70,51,30.12,29.98,13,2,13,0.00
2013-4-1,86.5,75.9,68.9,69.7,64.3,58.8,90,69,41,29.98,29.88,17,2,18,0.00
2013-4-2,85.1,73.2,65.5,67.0,63.9,59.1,95,75,43,30.01,29.92,10,2,10,0.00
2013-4-3,83.2,75.5,67.4,69.0,66.1,63.7,92,74,52,29.99,29.92,11,2,14,0.00
2013-4-4,85.7,75.6,67.4,70.2,68.1,64.8,94,79,53,29.97,29.83,12,2,14,0.82
2013-4-5,72.8,67.8,64.3,69.3,64.6,57.1,95,90,76,29.91,29.75,15,2,19,1.26
2013-4-6,78.1,68.8,59.2,63.7,59.3,56.0,91,73,56,30.01,29.86,10,2,13,0.00
2013-4-7,76.8,72.7,68.3,64.8,61.8,59.8,79,69,58,30.07,29.94,14,3,14,0.00
2013-4-8,81.1,72.4,62.3,65.4,59.9,54.8,94,67,41,30.05,29.97,10,2,11,0.00
2013-4-9,81.1,74.3,66.3,67.7,64.4,62.2,91,72,55,30.07,29.97,13,2,13,0.00
2013-4-10,83.0,77.1,71.1,70.6,68.2,64.3,84,74,59,30.03,29.92,14,3,16,0.00
2013-4-11,83.4,78.6,75.6,72.0,70.0,68.4,83,75,64,29.94,29.83,14,3,17,0.00
2013-4-12,89.3,81.0,77.4,76.9,72.3,70.6,84,75,57,29.88,29.79,10,2,11,0.20
2013-4-13,84.1,78.3,74.2,74.5,71.1,68.0,89,79,63,29.90,29.80,8,1,10,0.05
2013-4-14,86.5,79.7,73.9,74.5,71.5,68.2,93,77,55,29.89,29.81,11,1,12,0.00
2013-4-15,89.7,78.1,71.6,74.8,71.5,67.9,92,81,54,29.99,29.85,12,1,13,0.16
2013-4-16,85.1,78.5,71.8,75.4,71.1,68.7,93,79,62,30.05,29.95,13,3,13,0.02
2013-4-17,83.4,79.0,73.9,69.9,67.6,65.8,85,69,57,30.03,29.94,11,3,12,0.00
2013-4-18,84.9,79.7,74.2,71.9,68.8,65.9,83,70,55,29.98,29.91,12,2,16,0.00
2013-4-19,87.2,81.3,77.2,72.8,69.7,65.1,85,69,50,29.97,29.89,12,3,14,0.00
2013-4-20,90.7,78.9,72.5,75.3,71.5,64.9,94,80,44,30.00,29.86,14,1,18,0.46
2013-4-21,83.4,77.1,72.1,72.9,70.5,65.1,92,81,56,30.01,29.91,11,2,16,0.07
2013-4-22,81.1,72.1,69.3,71.2,68.7,66.6,94,89,65,29.98,29.85,10,2,13,0.55
2013-4-23,83.2,75.0,67.1,69.8,64.7,59.9,95,73,49,30.01,29.88,16,3,16,0.01
2013-4-24,82.2,75.9,66.9,65.2,61.8,59.0,85,62,50,30.06,29.96,10,2,12,0.00
2013-4-25,82.8,76.0,67.3,64.9,60.3,57.2,86,59,43,30.12,30.00,12,2,13,0.00
2013-4-26,82.6,75.4,65.8,64.3,62.0,59.3,85,64,49,30.15,30.04,12,3,16,0.00
2013-4-27,80.9,76.4,70.8,66.2,62.1,58.4,74,62,49,30.13,30.01,13,4,14,0.00
2013-4-28,81.2,76.9,73.2,64.7,62.2,59.3,74,61,50,30.04,29.92,12,3,13,0.00
2013-4-29,82.0,76.6,72.1,72.3,66.9,61.8,92,72,59,29.96,29.86,13,2,14,0.36
2013-4-30,85.3,75.4,69.3,71.9,69.1,65.4,92,81,57,29.93,29.85,7,1,10,0.71
2013-5-1,84.3,74.9,70.6,73.2,69.6,67.2,93,85,62,29.92,29.84,11,1,14,0.19
2013-5-2,81.8,73.3,68.8,72.2,68.8,66.2,94,86,62,29.87,29.71,13,2,16,1.68
2013-5-3,83.8,73.3,68.1,71.4,67.8,61.7,95,84,50,29.74,29.62,13,3,16,0.90
2013-5-4,86.3,76.8,68.9,69.3,66.4,62.4,93,72,47,29.74,29.62,14,4,19,0.00
2013-5-5,81.4,74.0,68.3,66.3,61.1,52.5,90,66,40,29.86,29.69,12,4,16,0.00
2013-5-6,84.3,73.9,62.0,64.3,58.5,51.8,78,60,39,29.95,29.84,13,3,16,0.00
2013-5-7,83.8,74.0,64.3,63.3,59.2,52.8,84,62,38,29.99,29.90,16,4,17,0.00
2013-5-8,84.9,76.7,63.9,67.8,59.4,54.2,86,57,38,30.06,29.98,17,3,17,0.00
2013-5-9,87.6,77.2,66.1,72.2,65.6,57.8,85,69,48,30.06,29.98,11,1,11,0.00
2013-5-10,88.0,80.3,72.3,73.2,70.3,66.5,92,73,50,30.06,29.95,11,2,12,0.07
2013-5-11,89.7,79.3,73.3,74.3,71.4,63.3,93,78,53,30.00,29.91,11,1,15,0.62
2013-5-12,89.9,78.7,73.2,75.4,70.8,64.0,94,78,48,30.00,29.87,14,2,17,0.03
2013-5-13,87.6,79.3,72.1,72.1,68.6,63.0,92,72,50,30.01,29.92,13,2,14,0.01
2013-5-14,81.4,76.3,70.6,66.0,60.0,53.8,79,58,43,30.10,29.99,12,3,17,0.00
2013-5-15,81.1,73.7,65.2,65.6,59.3,52.6,83,62,38,30.11,30.02,13,2,14,0.00
2013-5-16,82.0,75.5,65.6,63.3,60.6,57.3,85,61,47,30.04,29.97,11,2,11,0.00
2013-5-17,88.2,78.5,69.6,70.3,66.9,61.9,86,69,42,30.01,29.94,11,2,11,0.00
2013-5-18,85.7,79.5,73.5,72.8,70.0,67.9,91,73,60,30.03,29.95,10,2,11,0.00
2013-5-19,85.3,78.9,72.3,70.6,68.3,64.9,90,71,52,30.03,29.92,10,2,13,0.00
2013-5-20,79.8,75.3,69.6,74.1,70.7,67.2,95,86,74,30.00,29.90,10,1,12,2.85
2013-5-21,83.2,75.3,70.1,74.1,70.1,68.3,95,85,65,29.97,29.85,12,2,17,0.70
2013-5-22,87.8,77.0,72.1,75.6,71.2,65.6,91,82,60,29.89,29.82,21,1,27,0.23
2013-5-23,92.5,81.6,74.0,74.7,71.1,63.2,93,73,38,29.93,29.84,12,2,15,0.00
2013-5-24,92.1,81.6,74.4,74.7,71.6,60.8,94,73,44,29.98,29.87,12,2,13,0.03
2013-5-25,85.7,80.6,75.1,73.2,67.0,61.7,88,65,47,30.09,29.96,14,3,14,0.00
2013-5-26,84.1,78.5,70.3,66.5,63.3,61.0,80,60,47,30.10,30.03,12,3,13,0.00
2013-5-27,84.5,79.8,75.6,71.4,68.2,62.2,78,68,59,30.08,29.98,13,5,18,0.00
2013-5-28,82.2,77.8,74.0,72.5,71.1,68.8,91,80,67,30.03,29.96,12,4,17,0.68
2013-5-29,80.5,75.6,70.9,73.3,70.5,67.2,94,84,73,30.02,29.95,16,3,18,1.57
2013-5-30,83.4,78.7,74.6,74.3,70.3,67.1,87,76,68,29.99,29.92,16,5,20,0.12
2013-5-31,84.7,78.1,74.2,74.5,72.6,70.3,93,84,66,29.98,29.92,12,3,13,0.49
2013-6-1,81.8,77.0,73.9,77.5,73.7,71.7,94,90,77,29.95,29.88,13,1,13,0.66
2013-6-2,89.7,79.1,72.8,76.6,72.7,68.8,96,82,56,29.93,29.84,9,1,11,1.07
2013-6-3,87.8,80.5,73.7,74.7,72.3,70.1,93,77,57,29.96,29.84,10,1,10,0.01
2013-6-4,84.5,78.9,73.5,76.2,73.0,69.1,95,83,61,29.97,29.89,6,1,8,0.43
2013-6-5,83.8,80.9,78.3,76.1,74.4,72.9,89,81,73,29.95,29.82,10,2,11,0.03
2013-6-6,89.0,80.3,74.9,79.7,74.3,69.6,93,83,64,29.84,29.71,21,2,25,0.71
2013-6-7,87.8,77.5,74.2,78.1,73.3,70.8,95,87,68,29.93,29.77,16,2,19,2.35
2013-6-8,88.6,81.4,74.6,76.9,73.0,68.0,95,77,62,30.02,29.89,6,2,8,0.00
2013-6-9,86.5,81.8,79.2,78.1,73.1,67.7,84,75,61,30.03,29.96,12,3,14,0.01
2013-6-10,87.4,83.0,79.8,75.8,74.0,72.2,83,75,64,30.01,29.93,10,3,12,0.00
2013-6-11,86.3,82.4,79.0,77.0,75.3,73.2,88,79,70,30.03,29.93,6,2,7,0.00
2013-6-12,87.2,80.8,76.3,78.8,74.0,62.9,91,80,61,30.01,29.94,6,0,7,0.12
2013-6-13,85.1,78.8,73.2,80.5,73.6,64.3,94,84,66,29.99,29.87,11,0,11,0.43
2013-6-14,90.7,79.0,73.5,77.8,72.9,68.1,93,82,51,29.91,29.81,20,2,20,0.27
2013-6-15,82.0,77.3,75.8,75.9,74.0,72.8,93,90,75,29.94,29.86,6,0,6,0.01
2013-7-10,78.1,77.1,76.3,74.1,73.1,71.4,89,88,80,29.97,29.93,2,0,4,0.17
2013-7-11,90.3,81.0,75.8,75.9,72.0,67.5,91,75,51,29.97,29.86,10,1,14,0.00
2013-7-12,89.5,81.0,76.7,74.5,71.8,66.6,88,74,48,29.91,29.83,6,0,8,0.00
2013-7-13,88.8,76.8,72.5,74.3,70.8,67.3,93,83,56,29.95,29.84,15,1,15,1.66
2013-7-14,88.2,78.1,72.0,74.3,70.9,67.0,93,80,52,30.02,29.91,13,2,15,0.46
2013-7-15,87.8,77.0,73.2,74.4,71.3,66.5,91,84,51,30.01,29.95,8,1,10,0.00
2013-7-16,83.2,78.1,73.0,73.0,69.8,65.9,90,76,59,30.08,29.97,15,4,18,0.46
2013-7-17,79.4,74.7,71.6,74.2,71.3,66.8,93,89,74,30.08,29.97,10,1,11,2.00
2013-7-18,84.1,75.9,72.7,76.3,71.7,68.9,93,87,66,30.06,29.98,18,1,22,0.57
2013-7-19,87.6,80.5,73.5,77.8,73.2,70.5,93,80,57,30.06,29.97,9,2,16,0.02
2013-7-20,87.8,81.7,75.8,76.9,73.8,67.9,89,78,54,30.04,29.96,14,1,17,0.04
2013-7-21,90.1,82.0,76.7,76.4,74.2,71.1,91,78,59,30.07,29.98,9,1,11,0.01
2013-7-22,92.1,83.7,77.9,75.6,72.6,66.9,88,71,46,30.07,29.99,8,1,9,0.00
2013-7-23,94.3,83.8,76.7,75.7,72.5,64.6,90,71,39,30.04,29.90,10,1,13,0.03
2013-7-24,92.1,84.9,79.4,74.9,72.0,66.2,83,66,46,29.96,29.84,15,4,20,0.00
2013-7-25,92.5,84.5,75.8,75.2,71.8,67.9,87,67,46,29.95,29.84,16,4,16,0.00
2013-7-26,91.8,82.9,75.3,75.6,73.6,70.2,92,75,51,29.96,29.85,15,4,21,0.64
2013-7-27,88.8,80.1,76.7,76.2,74.0,71.2,92,82,61,29.93,29.86,10,1,11,0.02
2013-7-28,89.9,81.4,76.0,76.8,73.6,69.9,92,78,55,30.00,29.88,8,1,9,0.22
2013-7-29,90.3,82.7,77.0,76.5,73.9,70.3,90,76,53,30.06,29.95,9,2,14,0.00
2013-7-30,89.5,83.7,77.4,77.7,74.1,70.7,91,74,56,30.09,30.00,14,2,14,0.62
2013-7-31,89.3,84.4,79.2,75.4,72.8,69.1,84,69,52,30.03,29.93,14,3,15,0.00
2013-8-1,88.4,83.3,78.8,72.9,71.3,66.8,79,68,53,29.98,29.86,13,3,14,0.00
2013-8-2,92.9,82.0,74.9,75.0,71.7,68.0,91,72,45,29.99,29.85,15,1,15,0.59
2013-8-3,87.6,78.2,73.3,75.9,73.9,68.5,93,87,64,30.05,29.95,24,1,32,0.74
2013-8-4,93.4,82.7,76.0,76.4,72.9,66.3,93,75,42,30.04,29.91,13,2,14,0.01
2013-8-5,80.1,79.2,78.3,75.7,73.2,72.3,89,82,78,29.97,29.91,1,0,1,0.00
2013-8-6,90.7,84.3,78.6,79.2,72.6,68.3,83,69,56,29.88,29.82,10,2,13,0.07
2013-8-7,89.5,83.0,76.7,76.3,72.7,70.4,90,72,55,29.91,29.83,10,1,13,0.00
2013-8-8,89.7,84.4,81.1,75.0,72.1,67.2,77,67,51,29.94,29.84,14,3,16,0.00
2013-8-9,87.4,82.3,77.2,75.4,71.4,66.2,89,70,55,29.99,29.88,11,2,16,0.03
2013-8-10,89.9,84.7,79.9,74.2,72.4,69.0,79,67,51,30.04,29.96,13,3,14,0.00
2013-8-11,90.1,85.1,80.9,74.5,73.1,70.3,79,68,56,30.06,29.99,13,3,15,0.00
2013-8-12,89.7,84.2,77.7,73.8,71.9,68.9,82,67,52,30.03,29.94,11,2,14,0.00
2013-8-13,91.2,84.7,77.7,77.0,72.2,66.2,90,68,47,29.97,29.88,10,2,11,0.00
2013-8-14,91.6,84.3,77.4,75.0,72.1,66.8,88,68,48,29.95,29.85,9,1,11,0.00
2013-8-15,86.5,81.3,77.4,75.4,73.8,71.2,85,78,65,29.99,29.89,7,1,7,0.02
2013-8-16,91.6,84.8,79.0,77.5,74.2,69.3,89,72,50,29.98,29.90,9,2,11,0.00
2013-8-17,90.5,85.6,81.8,76.5,74.2,67.0,81,70,47,30.01,29.92,11,3,14,0.00
2013-8-18,89.7,84.7,80.7,76.4,73.9,72.2,80,71,59,30.00,29.92,14,3,16,0.11
2013-8-19,90.1,83.8,78.3,76.4,73.6,69.9,87,72,52,30.00,29.89,11,3,16,0.09
2013-8-20,89.7,84.3,78.3,74.3,72.6,69.1,84,69,54,29.98,29.91,13,3,14,0.05
2013-8-21,89.9,83.0,77.9,78.0,74.6,71.5,90,76,58,30.00,29.92,13,3,15,0.49
2013-8-22,89.7,84.3,76.8,75.9,74.1,70.4,87,72,58,29.99,29.88,11,3,14,0.01
2013-8-23,90.1,83.6,79.2,77.5,73.5,70.2,83,72,54,29.94,29.86,10,2,14,0.08
2013-8-24,91.0,83.2,76.7,78.8,73.4,69.2,89,73,55,30.04,29.90,9,2,10,0.53
2013-8-25,86.7,80.2,76.1,75.3,72.8,70.4,90,79,59,30.08,29.95,10,2,10,0.09
2013-8-26,88.6,81.9,77.9,74.7,71.4,67.7,83,71,53,30.04,29.94,10,1,11,0.00
2013-8-27,86.5,80.0,74.9,73.9,71.1,67.8,86,75,60,29.97,29.90,8,1,8,0.08
2013-8-28,87.2,79.7,74.7,74.0,71.5,68.8,89,77,56,29.97,29.87,10,1,13,0.13
2013-8-29,90.7,82.6,75.1,73.8,71.7,67.8,89,71,49,29.95,29.85,10,1,10,0.00
2013-8-30,91.4,83.5,76.1,75.6,71.2,65.6,91,68,44,29.93,29.83,9,1,10,0.00
2013-8-31,90.1,79.4,72.7,74.4,71.7,67.4,92,78,51,29.91,29.84,11,1,11,0.26
2013-9-1,89.3,79.1,74.2,77.6,73.5,66.2,93,84,55,29.93,29.86,9,0,11,0.03
2013-9-2,92.9,79.3,74.6,77.0,73.2,69.2,93,83,47,29.97,29.87,14,0,14,0.63
2013-9-3,89.7,79.6,73.2,76.7,73.3,70.8,93,82,59,29.95,29.86,9,1,14,0.72
2013-9-4,86.5,82.2,77.7,76.8,74.6,73.2,90,78,67,29.99,29.87,9,1,9,0.00
2013-9-5,89.0,82.8,76.7,77.7,74.4,71.4,92,77,58,29.99,29.92,9,2,11,0.40
2013-9-6,90.7,83.9,77.6,77.7,73.4,69.3,91,72,50,29.96,29.84,10,2,10,0.00
2013-9-7,88.8,80.5,75.4,75.1,72.0,69.1,84,76,55,29.91,29.83,11,1,11,0.00
2013-9-8,91.0,78.8,73.0,75.3,72.1,65.6,92,81,48,29.87,29.78,15,1,21,0.03
2013-9-9,88.6,81.8,74.4,74.3,72.0,69.1,91,74,53,29.92,29.82,10,2,15,0.00
2013-9-10,88.6,81.2,76.5,75.0,72.5,67.9,89,76,54,29.96,29.88,14,2,23,0.27
2013-9-11,85.7,80.1,76.7,77.2,72.8,70.4,90,79,66,29.97,29.89,13,2,18,0.18
2013-9-12,85.1,80.4,76.3,75.3,72.9,69.2,89,78,62,29.94,29.81,6,1,8,0.00
2013-9-13,92.5,82.8,74.9,76.3,71.9,67.4,92,71,45,29.83,29.72,8,1,9,0.00
2013-9-14,91.4,83.7,76.1,77.3,72.0,65.6,91,70,45,29.90,29.75,9,2,11,0.00
2013-9-15,85.1,79.9,76.5,77.1,74.3,70.3,91,83,72,29.98,29.85,9,1,13,0.37
2013-9-16,84.0,80.1,76.8,76.5,73.8,70.4,90,81,69,29.97,29.88,8,1,15,0.17
2013-9-17,86.1,79.3,75.6,75.7,73.2,70.2,88,82,67,29.95,29.84,11,1,11,0.27
2013-9-18,86.7,79.5,74.6,74.5,72.7,69.8,92,80,62,29.94,29.83,11,2,13,0.05
2013-9-19,88.8,80.5,75.1,75.1,72.3,69.5,91,77,55,29.93,29.85,10,2,14,0.45
2013-9-20,87.4,80.0,72.8,72.7,69.4,63.5,92,72,47,29.92,29.82,10,2,15,0.01
2013-9-21,87.6,80.6,73.9,72.8,71.1,68.9,87,74,57,29.84,29.69,10,1,11,0.01
2013-9-22,91.4,83.1,75.6,75.0,72.4,65.3,91,72,44,29.79,29.68,14,1,14,0.00
2013-9-23,89.3,80.6,76.3,76.4,74.7,71.8,91,83,60,29.90,29.79,11,0,13,0.31
2013-9-24,92.9,82.6,76.3,78.3,72.9,67.9,91,74,51,29.89,29.80,15,2,21,0.01
2013-9-25,88.4,80.2,75.1,76.9,72.8,68.3,90,78,65,29.84,29.74,15,2,16,0.16
2013-9-26,89.0,80.9,76.3,77.6,74.6,72.3,91,82,61,29.80,29.73,17,4,21,0.13
2013-9-27,89.9,81.8,75.1,74.8,71.0,63.4,90,72,42,29.84,29.74,13,2,13,0.00
2013-9-28,88.2,80.3,72.8,73.1,70.5,67.8,92,73,54,29.89,29.80,11,2,13,1.13
2013-9-29,87.4,79.8,73.2,74.6,69.2,63.7,93,72,46,29.89,29.80,10,2,11,0.06
2013-9-30,88.2,80.9,72.7,71.6,68.9,65.9,88,68,48,29.93,29.82,10,2,11,0.00
2013-10-1,87.6,82.3,76.0,73.1,69.8,67.3,85,66,52,29.95,29.88,11,3,15,0.00
2013-10-2,82.4,80.5,76.1,75.4,71.7,70.0,91,75,67,29.97,29.88,9,2,10,0.23
2013-10-3,84.7,79.4,74.6,74.8,72.0,69.4,93,79,66,29.98,29.87,10,2,11,0.40
2013-10-4,87.6,80.3,73.7,74.9,69.4,66.6,92,71,54,29.98,29.91,9,2,11,0.00
2013-10-5,88.6,80.7,72.3,72.1,68.4,60.8,89,68,41,29.95,29.85,9,2,10,0.00
2013-10-6,89.3,81.5,74.6,74.7,69.7,65.0,89,69,46,29.89,29.79,8,1,9,0.00
2013-10-7,90.7,79.7,73.7,73.9,70.9,66.9,91,76,49,29.83,29.74,15,2,23,0.12
2013-10-8,89.5,81.1,74.9,76.4,72.5,68.0,92,76,54,29.86,29.78,10,2,13,0.24
2013-10-9,86.7,78.3,71.8,75.0,71.1,68.1,90,79,60,29.92,29.83,11,2,14,0.03
2013-10-10,88.0,79.7,72.3,71.4,69.0,66.1,90,71,51,29.94,29.86,11,2,13,0.00
2013-10-11,87.2,78.3,69.9,69.6,66.2,62.8,89,68,45,29.94,29.86,11,2,13,0.00
2013-10-12,86.3,77.5,68.6,70.4,65.7,62.0,92,69,46,29.95,29.87,9,1,10,0.00
2013-10-13,85.5,78.2,71.3,71.0,65.2,59.6,90,67,42,29.97,29.89,10,2,11,0.00
2013-10-14,86.1,78.2,70.9,68.3,65.8,63.3,85,67,47,29.94,29.83,10,1,13,0.00
2013-10-15,87.0,78.5,71.5,70.1,67.5,65.0,90,70,48,29.88,29.79,10,2,10,0.00
2013-10-16,85.7,77.8,70.8,70.5,67.3,64.1,88,72,51,29.87,29.81,10,1,10,0.00
2013-10-17,86.7,79.0,71.8,71.8,68.7,65.0,91,72,52,29.89,29.82,9,1,10,0.00
2013-10-18,87.4,79.8,71.6,73.0,69.4,67.8,92,72,53,29.91,29.83,9,1,11,0.00
2013-10-19,89.5,81.8,73.5,72.6,70.4,68.5,90,69,52,29.89,29.80,9,1,11,0.00
2013-10-20,89.9,80.8,76.5,75.1,72.7,66.7,90,78,49,29.89,29.80,10,1,13,0.68
2013-10-21,90.3,82.0,76.0,75.7,72.7,69.4,91,74,54,29.93,29.83,8,1,10,0.00
2013-10-22,91.2,82.9,75.1,75.7,73.0,69.3,92,73,50,29.89,29.76,9,1,13,0.00
2013-10-23,86.3,80.9,76.7,75.3,71.0,65.2,89,73,59,29.88,29.75,14,2,14,0.02
2013-10-24,80.3,76.5,72.3,66.7,63.3,59.3,74,64,55,30.01,29.86,11,2,13,0.00
2013-10-25,83.2,76.2,69.9,64.3,61.7,58.0,76,62,44,30.07,29.99,15,3,17,0.00
2013-10-26,82.6,74.8,67.6,64.1,61.7,59.4,82,65,47,30.07,29.97,11,2,11,0.00
2013-10-27,82.8,74.3,66.6,63.9,60.5,58.3,83,63,45,30.02,29.94,11,2,11,0.00
2013-10-28,84.1,75.4,66.1,65.7,62.3,55.7,90,66,39,30.06,29.97,9,2,11,0.00
2013-10-29,84.9,76.7,66.9,67.4,64.5,62.1,90,68,48,30.09,30.01,15,3,16,0.00
2013-10-30,83.6,78.8,71.3,65.9,63.9,61.1,76,61,47,30.11,30.01,11,4,15,0.00
2013-10-31,84.3,78.7,71.1,70.4,67.4,63.0,85,69,54,30.04,29.92,10,2,14,0.00
2013-11-1,88.4,80.7,74.4,71.6,69.9,67.6,85,70,52,29.93,29.81,9,1,11,0.00
2013-11-2,88.2,78.3,71.3,72.9,68.0,60.5,93,72,44,29.85,29.73,13,2,14,0.00
2013-11-3,81.8,74.0,68.6,62.6,59.9,56.6,78,62,47,29.95,29.82,14,4,17,0.00
2013-11-4,81.2,76.8,74.4,66.8,61.2,50.2,76,59,34,30.00,29.92,16,5,18,0.04
2013-11-5,82.2,77.8,73.5,69.9,66.0,62.4,87,67,56,30.01,29.94,23,6,23,0.09
2013-11-6,83.2,78.5,71.8,68.7,66.9,65.7,83,68,57,29.98,29.91,15,4,15,0.00
2013-11-7,87.2,77.3,69.6,69.8,66.8,62.2,90,72,44,29.94,29.83,9,1,15,0.00
2013-11-8,84.9,76.4,71.5,71.9,68.3,63.6,91,77,51,29.96,29.86,14,3,16,0.40
2013-11-9,79.8,76.3,73.5,72.7,70.2,68.3,91,81,71,30.03,29.93,15,5,16,0.45
2013-11-10,83.4,78.5,72.7,70.8,67.7,65.1,86,70,57,30.04,29.97,15,3,15,0.02
2013-11-11,84.1,76.7,70.8,69.2,66.1,63.7,86,71,55,30.03,29.97,11,2,14,0.00
2013-11-12,84.9,76.6,68.8,68.7,65.6,62.9,90,70,48,30.00,29.89,10,2,11,0.00
2013-11-13,76.3,72.5,69.6,65.1,61.4,53.3,80,69,54,30.12,29.92,18,5,22,0.01
2013-11-14,76.5,72.8,69.6,60.6,55.7,52.2,64,55,47,30.16,30.05,17,5,17,0.00
2013-11-15,81.6,76.4,72.0,69.4,64.1,58.2,89,66,55,30.06,29.95,15,3,15,0.15
2013-11-16,79.8,77.5,72.5,70.6,66.4,58.2,89,69,51,30.02,29.93,10,2,10,0.21
2013-11-17,83.4,78.1,72.3,70.0,67.8,65.2,86,71,58,30.00,29.92,13,2,15,0.00
2013-11-18,84.5,75.9,69.8,72.8,68.3,66.8,92,78,58,29.95,29.84,6,0,7,0.01
2013-11-19,86.1,76.7,72.0,71.0,68.9,66.6,89,78,54,29.87,29.77,9,1,10,0.00
2013-11-20,85.1,76.6,70.6,72.7,69.5,67.7,92,79,58,29.98,29.84,7,1,9,0.02
2013-11-21,83.4,75.4,71.6,73.5,70.4,67.1,93,85,58,30.06,29.97,10,2,11,1.94
2013-11-22,81.2,76.9,72.5,71.2,68.5,66.6,93,76,64,30.07,29.99,14,4,15,0.91
2013-11-23,82.8,77.5,73.0,69.6,68.3,67.1,82,73,62,30.00,29.89,10,2,13,0.00
2013-11-24,83.2,74.3,68.3,68.4,65.2,61.2,91,75,51,30.06,29.91,18,3,18,0.03
2013-11-25,77.4,73.6,71.6,68.4,62.8,58.1,87,69,61,30.12,29.97,15,6,17,0.07
2013-11-26,84.3,78.0,72.1,73.0,70.4,67.2,88,78,62,29.97,29.76,14,3,15,0.09
2013-11-27,78.1,71.6,59.2,73.8,62.6,50.9,93,75,47,30.04,29.71,20,4,23,0.71
2013-11-28,73.7,61.9,48.5,57.5,50.9,43.4,83,68,52,30.17,30.04,15,3,15,0.00
2013-11-29,77.2,69.3,59.9,59.8,57.0,55.4,87,67,49,30.19,30.11,16,3,16,0.00
2013-11-30,78.8,68.3,61.3,68.1,61.4,58.0,90,79,63,30.13,30.03,10,2,14,0.26
2013-12-1,74.7,67.7,61.8,69.0,64.3,58.7,93,89,77,30.03,29.87,7,1,9,0.42
2013-12-2,75.6,67.7,62.1,66.0,61.8,56.8,94,82,53,29.87,29.75,11,2,13,0.01
2013-12-3,80.3,70.6,60.9,64.4,61.1,56.7,93,74,46,29.93,29.82,7,0,9,0.00
2013-12-4,83.6,73.0,65.3,68.1,63.9,62.1,93,75,52,30.01,29.91,8,1,9,0.00
2013-12-5,82.2,74.2,65.8,69.9,66.3,63.0,93,77,59,30.09,30.00,11,2,13,0.00
2013-12-6,83.4,76.8,69.6,69.1,66.5,63.0,86,71,55,30.11,30.01,11,2,13,0.00
2013-12-7,82.4,74.3,66.3,70.6,66.0,63.4,93,77,54,30.14,30.06,9,1,13,0.16
2013-12-8,82.2,76.1,69.9,69.1,67.0,63.8,90,74,56,30.13,30.04,11,2,14,0.02
2013-12-9,83.4,77.6,72.5,68.5,65.7,60.3,82,67,47,30.12,30.03,13,2,13,0.00
2013-12-10,84.9,76.9,70.1,69.9,68.4,65.9,89,76,58,30.08,30.00,9,1,9,0.00
2013-12-11,83.4,75.4,70.1,72.5,68.7,66.9,93,81,59,30.12,30.04,9,1,14,0.00
2013-12-12,80.3,71.5,64.3,70.5,64.2,56.5,92,79,61,30.15,30.06,16,2,16,0.01
2013-12-13,78.3,72.4,62.3,67.5,61.6,56.2,85,69,58,30.11,30.02,11,4,15,0.04
2013-12-14,82.0,77.0,72.7,69.4,68.0,66.2,85,74,61,30.03,29.91,13,3,15,0.00
2013-12-15,84.3,76.7,71.1,73.2,69.9,66.0,91,80,65,29.98,29.86,16,2,17,0.00
2013-12-16,73.5,68.4,62.1,66.0,58.9,56.3,84,72,60,30.08,29.96,11,2,11,0.00
2013-12-17,78.3,67.2,58.9,62.7,57.4,55.3,89,72,51,30.11,30.02,11,2,13,0.00
2013-12-18,76.8,66.8,59.9,57.6,55.5,52.3,90,69,45,30.16,30.06,13,2,13,0.00
2013-12-19,77.4,68.6,56.9,60.5,57.0,53.8,91,68,46,30.16,30.07,10,2,14,0.00
2013-12-20,80.7,75.0,65.0,67.2,64.7,59.5,86,71,56,30.11,30.03,14,3,16,0.00
2013-12-21,81.6,77.8,75.1,70.7,68.8,67.1,81,74,64,30.07,29.98,13,3,17,0.00
2013-12-22,83.2,78.6,76.3,71.1,69.2,66.8,81,73,59,30.08,30.00,11,3,13,0.00
2013-12-23,84.3,77.8,70.9,71.0,69.1,67.2,90,75,59,30.10,30.04,9,2,10,0.00
2013-12-24,82.2,71.7,67.6,71.1,64.8,57.8,94,80,56,30.10,30.00,11,2,18,0.00
2013-12-25,77.4,73.5,68.9,65.4,63.1,60.3,79,70,62,30.09,30.02,13,4,15,0.00
2013-12-26,78.6,75.4,72.8,68.9,66.7,64.3,79,74,67,30.09,29.99,9,2,9,0.00
2013-12-27,80.9,75.0,68.3,70.6,67.2,65.6,92,77,63,30.12,30.01,10,3,11,0.01
2013-12-28,79.8,76.9,74.9,70.2,68.0,65.3,82,74,68,30.10,29.95,14,4,16,0.00
2013-12-29,81.6,77.4,74.2,72.0,70.7,69.1,91,80,70,29.96,29.86,9,1,14,0.00
2013-12-30,79.9,73.5,68.1,71.7,67.7,63.0,93,83,66,30.06,29.91,9,1,10,0.00
2013-12-31,79.6,72.8,67.3,65.3,61.8,59.9,83,69,54,30.15,30.03,15,4,15,0.00
2014-1-1,80.7,75.2,72.7,72.5,68.4,61.6,90,80,64,30.11,29.97,13,2,13,0.73
2014-1-2,85.5,75.5,67.6,70.6,67.0,63.3,93,77,49,29.97,29.80,15,2,15,0.01